ONEWEB-0051 (45155 NORAD) Tracking and Keplerian Element Data

This shows tracking and keplerian element data for the satellite.

Feedback or suggestion? Click here.




ElementValue
Catalog45155
NameONEWEB-0051
Epoch Orbit934
Epoch Day93.96209562
Epoch Year2020
RAAN145.2862
Inclination87.5596
Eccentricity0.0029398
Argument of Perigee89.4897
Mean Anonmoly270.9702
Mean Motion14.95428043
Decay Rate-0.00328612
L11 45155U 20008AA 20093.96209562 -.00328612 00000-0 -30883-1 0 9990
L22 45155 87.5596 145.2862 0029398 89.4897 270.9702 14.95428043 9349

Live tracking and technical data element details for ONEWEB-0051 (NORAD 45155). ONEWEB-0051 can be tracked NOW for your location showing map with azimuth and elevation plus other details from your city location.

Track the satellite on the map from your city or location and see movement details for azimuth, elevation, latitude, longitude, range, height, and movement on the map or in text.







IsCatalogInMostPopularTable: catalog: 45155, numindb: 11
Update: records affected: 1



GetName: 45155 ONEWEB-0051

Hit Count: updated at: Sat, 04 Apr 2020 00:04:20 GMT